Wind_Speed
42 41 41 41 41 41 41 41 41 41 41 41 41 41 41 41 41 41 41 42 42 43 44 44 44 45 46 46 46 46 46 46 45 45 46 46 45 46 46 45 46 46 47
40 40 40 40 40 40 40 40 40 40 40 40 40 40 39 39 39 40 40 40 40 41 41 41 42 42 42 42 42 42 41 41 40 40 39 39 41 43 43 45 46 47 47
39 39 39 39 39 39 39 39 39 39 39 38 38 38 38 37 38 38 38 38 39 39 39 39 39 39 38 38 37 37 36 36 36 36 35 35 36 37 39 41 42 44 45
38 38 38 38 37 37 37 37 37 36 36 36 36 36 36 36 36 36 36 36 37 37 36 36 36 36 36 35 35 34 34 34 33 33 33 33 33 35 37 38 40 42 44
36 36 36 36 36 35 35 35 35 35 35 34 34 34 35 35 35 35 35 35 35 34 34 34 34 34 34 33 33 33 32 31 30 30 31 32 32 33 35 37 39 41 43
34 34 34 34 34 34 34 34 33 33 33 33 33 33 33 33 33 33 33 33 33 33 32 32 32 32 32 31 31 31 30 29 29 30 31 32 34 35 37 39 41 42 44
31 31 31 32 32 32 32 31 31 31 31 32 31 32 32 32 32 32 32 32 31 31 31 31 31 31 31 31 31 30 30 31 31 32 33 35 36 37 39 41 42 44 46
29 29 29 29 30 29 29 29 30 30 30 30 30 30 30 30 30 30 30 30 30 31 31 31 31 31 31 31 31 32 32 32 33 34 35 36 38 39 41 43 45 46 48
27 27 27 27 27 27 27 28 28 28 28 28 29 29 29 29 29 29 29 29 30 30 31 31 31 31 31 32 33 33 33 34 35 36 38 39 40 41 43 44 46 47 49
25 25 25 25 25 25 26 26 26 26 27 27 28 28 28 28 28 28 29 29 30 30 31 31 31 32 32 33 33 34 35 36 37 38 39 41 42 43 45 46 47 48 50
24 24 24 24 24 24 24 24 25 25 26 26 26 26 26 27 27 28 28 29 30 31 31 31 32 33 34 34 35 36 37 38 39 41 42 44 45 46 47 48 49 50 50
23 23 23 23 23 23 23 23 24 24 25 25 25 26 26 26 27 27 28 29 30 31 32 33 33 34 35 36 36 37 39 40 42 43 45 46 47 48 49 50 50 50 50
22 22 22 22 22 23 23 23 23 23 24 24 24 25 26 26 27 28 29 30 31 32 33 33 34 35 36 37 38 39 41 42 44 45 46 47 48 48 49 50 50 50 50
21 22 22 22 22 22 22 22 22 23 23 24 25 26 26 27 28 29 30 31 32 33 34 34 35 36 37 39 40 41 43 44 46 47 47 48 49 49 50 50 50 50 49
22 22 22 22 22 22 22 22 23 23 24 25 26 27 28 28 29 30 31 32 33 34 35 36 37 38 39 40 42 43 44 46 47 48 48 49 50 50 50 50 50 48 46
22 22 22 22 22 23 23 23 24 24 25 26 27 28 29 29 30 31 32 33 34 35 36 37 38 39 40 42 43 45 46 47 48 49 50 51 51 51 50 50 49 47 44
23 23 23 23 23 24 24 25 25 26 27 27 28 29 29 30 31 32 33 34 35 36 37 38 39 40 42 43 45 46 47 48 49 50 51 51 50 50 49 48 47 44 42
23 23 24 24 25 25 26 26 27 27 28 28 29 30 31 32 33 33 34 35 36 37 38 39 40 41 43 45 46 47 48 49 50 51 51 50 49 49 48 46 45 43 40
25 25 25 26 26 26 27 27 28 29 29 30 30 31 32 33 34 34 35 36 37 38 39 40 41 43 44 46 47 48 49 50 51 51 50 49 48 47 46 45 43 42 40
26 26 27 27 27 27 27 28 29 29 30 31 31 32 33 34 34 35 36 37 38 39 40 41 42 43 45 47 48 49 50 51 51 50 49 48 47 46 45 44 42 41 39
28 28 28 28 28 28 29 29 29 30 30 31 32 33 34 34 35 36 37 38 38 39 40 42 43 44 46 48 49 50 51 50 50 49 48 47 46 45 44 43 41 40 38
30 30 30 30 30 30 30 30 30 31 31 31 32 34 34 35 36 37 37 38 39 40 41 42 44 46 47 48 49 50 50 49 49 48 47 46 45 44 43 41 40 38 37
30 31 31 31 31 31 31 32 32 32 33 34 34 35 36 36 37 37 38 39 40 41 42 43 45 46 47 48 49 49 49 48 48 46 45 44 43 43 41 40 39 38 36
31 32 32 32 33 33 33 33 34 34 35 35 36 36 37 38 38 39 39 40 41 42 43 44 45 46 47 48 49 49 49 47 46 45 44 43 42 42 41 40 38 37 36
33 33 33 33 34 34 35 35 35 36 36 37 37 38 39 39 40 40 40 41 42 42 43 44 45 46 47 48 49 49 47 46 45 44 44 43 42 41 40 38 37 36 35
32 33 33 33 34 34 34 35 36 37 37 38 38 39 39 40 40 40 41 42 42 43 44 45 45 46 47 48 48 47 46 45 44 44 44 42 40 39 38 36 35 33 33
Wind_Direction
249 252 255 257 259 262 264 267 269 271 273 275 276 278 281 283 284 285 287 290 291 293 295 296 298 298 299 298 297 296 294 291 290 288 285 283 280 279 279 278 275 274 276
249 251 254 256 259 262 264 266 269 271 273 275 277 279 281 282 284 285 288 290 292 294 296 297 299 300 301 301 300 298 297 295 292 290 289 286 282 280 280 278 278 278 279
249 251 254 257 260 262 264 266 269 271 272 275 277 279 281 282 284 286 289 291 294 296 297 298 299 301 303 305 304 302 300 298 295 292 291 289 286 283 281 280 281 281 281
249 252 255 258 260 262 264 266 268 270 272 274 276 279 280 282 284 287 290 292 295 297 298 300 301 303 304 306 306 305 303 302 299 295 292 291 289 285 284 285 284 284 284
251 253 256 258 260 262 264 266 268 270 272 274 276 278 280 282 285 288 291 293 295 297 299 300 302 304 305 306 306 306 305 303 301 298 296 295 295 292 290 288 287 287 288
252 254 255 257 259 261 263 265 267 269 271 274 276 279 281 283 286 288 291 294 295 297 299 301 304 305 306 307 308 308 307 305 303 302 301 299 298 296 293 292 290 290 289
251 253 254 256 258 260 262 264 267 269 272 275 277 280 282 284 287 290 292 294 296 297 300 302 303 305 306 307 308 308 307 306 305 304 302 301 299 298 296 295 293 292 291
251 252 254 256 257 260 263 265 267 270 273 275 279 281 283 285 288 290 293 295 296 298 300 302 303 304 305 306 306 306 306 306 306 305 304 303 301 300 298 297 296 295 294
250 252 253 255 258 261 264 266 269 270 273 276 280 282 284 286 289 291 293 295 297 299 301 302 304 305 305 306 306 306 306 306 306 306 305 304 303 302 301 300 299 298 298
249 251 253 255 258 262 264 267 269 271 275 278 281 283 285 287 290 292 294 296 298 300 302 303 304 305 305 306 307 307 307 307 307 307 307 306 305 304 304 303 302 300 299
248 250 253 256 259 262 264 267 270 273 277 279 281 283 286 289 291 293 295 297 299 300 301 302 304 305 306 307 308 308 308 309 309 308 308 308 307 306 305 304 303 302 301
249 251 254 256 258 261 265 269 272 274 277 279 282 284 287 290 292 294 296 298 300 301 302 303 304 305 307 307 308 308 309 310 310 309 309 309 308 307 306 306 306 304 302
249 252 254 256 259 263 267 270 272 275 277 280 282 285 288 290 293 295 297 299 300 302 303 303 304 305 306 307 308 309 310 310 310 310 310 310 310 309 309 308 308 306 305
250 253 255 258 261 264 267 270 273 275 278 280 283 286 289 291 293 296 298 300 301 302 303 303 305 306 307 307 308 309 310 311 311 311 311 312 311 311 311 310 309 308 307
253 255 257 259 261 264 267 269 273 276 279 281 284 287 290 293 294 296 299 300 302 302 303 304 305 306 307 308 309 310 311 312 312 312 312 312 312 312 312 312 311 309 307
256 257 258 260 262 265 268 270 273 276 279 282 285 287 290 293 295 297 299 301 302 303 303 304 305 306 307 309 310 311 312 312 313 313 313 313 312 312 312 312 312 310 307
257 258 259 261 263 266 268 271 274 277 280 283 285 288 291 293 295 298 299 301 302 303 304 305 306 307 308 309 310 311 312 313 313 314 314 313 313 312 312 312 312 310 307
258 259 260 262 265 267 270 273 276 278 281 284 286 288 291 293 295 297 299 301 302 303 304 305 306 307 308 310 311 312 313 313 314 314 314 314 313 313 313 312 312 310 307
260 261 262 264 266 269 271 274 276 279 282 284 286 289 292 294 296 297 299 301 303 304 305 306 307 308 309 310 311 312 313 314 314 314 314 314 313 313 313 312 312 310 308
261 263 264 265 267 269 272 274 277 280 282 284 287 290 292 295 297 299 300 302 304 305 306 307 308 309 310 311 312 313 314 314 314 315 314 314 313 313 313 313 312 311 308
261 263 264 265 267 270 272 275 278 281 283 285 288 291 294 296 298 299 301 303 304 305 307 308 309 310 311 312 313 314 314 314 315 315 314 314 314 314 314 313 313 311 309
262 262 264 266 267 270 272 275 278 281 283 285 288 291 294 296 298 300 302 303 305 306 307 308 309 310 311 313 314 315 315 315 315 315 315 314 314 314 315 314 314 312 310
262 263 265 266 267 270 272 275 278 279 282 284 287 290 293 295 297 300 302 304 305 306 307 308 310 311 312 314 315 315 315 316 316 316 315 315 315 315 315 314 314 312 311
262 263 264 266 268 270 272 275 277 279 281 284 287 289 291 294 297 299 301 303 305 306 307 309 310 312 313 315 315 316 316 316 316 316 315 315 315 314 314 314 313 311 310
262 263 264 266 268 270 272 274 276 278 281 283 286 288 290 293 295 297 299 302 305 306 307 309 311 312 313 315 316 316 316 316 316 316 315 315 314 314 313 313 311 310 309
263 264 265 267 269 271 272 274 276 278 280 283 285 287 289 292 294 296 299 302 304 305 307 309 311 312 313 315 316 317 316 316 316 316 316 315 314 314 314 313 312 311 310
Height
5732 5734 5736 5737 5738 5739 5739 5739 5738 5738 5737 5736 5734 5733 5731 5729 5726 5724 5721 5718 5714 5710 5705 5700 5695 5689 5683 5677 5671 5665 5659 5654 5650 5648 5645 5642 5641 5641 5640 5639 5639 5639 5638
5723 5725 5726 5727 5728 5729 5729 5729 5729 5728 5727 5726 5725 5723 5721 5719 5717 5714 5711 5708 5704 5700 5695 5690 5685 5679 5673 5667 5660 5654 5649 5644 5640 5637 5634 5632 5631 5630 5629 5628 5627 5627 5626
5713 5715 5717 5718 5719 5719 5720 5720 5719 5719 5718 5716 5715 5713 5712 5709 5707 5704 5701 5698 5694 5690 5685 5680 5675 5669 5664 5658 5652 5646 5641 5636 5632 5628 5626 5624 5621 5620 5618 5618 5617 5616 5615
5704 5706 5707 5709 5709 5710 5710 5710 5710 5709 5708 5707 5706 5704 5702 5700 5698 5695 5692 5688 5685 5680 5676 5671 5666 5661 5655 5650 5644 5639 5634 5629 5625 5622 5619 5616 5614 5612 5610 5609 5607 5606 5604
5695 5696 5698 5699 5700 5701 5701 5701 5701 5700 5699 5698 5697 5695 5693 5691 5689 5686 5683 5679 5676 5672 5667 5663 5658 5653 5647 5642 5637 5632 5627 5623 5619 5615 5612 5610 5607 5604 5602 5600 5597 5595 5592
5686 5687 5689 5690 5691 5692 5692 5692 5692 5691 5690 5689 5688 5686 5684 5682 5680 5677 5674 5671 5667 5663 5659 5655 5650 5645 5640 5636 5631 5626 5621 5617 5613 5609 5606 5603 5600 5597 5594 5591 5587 5584 5581
5677 5679 5680 5681 5682 5683 5683 5683 5683 5682 5682 5680 5679 5678 5676 5674 5671 5668 5665 5662 5659 5655 5651 5647 5643 5638 5633 5629 5624 5620 5615 5611 5607 5603 5599 5595 5592 5588 5584 5580 5576 5572 5568
5669 5671 5672 5673 5674 5675 5675 5675 5675 5674 5673 5672 5671 5669 5667 5665 5663 5660 5657 5654 5651 5647 5643 5639 5635 5631 5626 5622 5618 5613 5608 5604 5600 5595 5591 5587 5582 5578 5574 5569 5564 5560 5555
5661 5663 5664 5665 5666 5667 5667 5667 5666 5666 5665 5664 5663 5661 5659 5657 5655 5652 5649 5646 5643 5639 5636 5632 5628 5623 5619 5615 5610 5606 5601 5596 5591 5587 5582 5577 5572 5567 5562 5557 5552 5547 5541
5654 5656 5657 5658 5658 5659 5659 5659 5659 5658 5657 5656 5655 5653 5651 5649 5647 5644 5641 5638 5635 5632 5628 5624 5620 5616 5611 5607 5602 5598 5593 5588 5583 5578 5573 5567 5562 5556 5550 5545 5539 5533 5527
5647 5648 5649 5650 5651 5651 5651 5651 5651 5651 5650 5649 5647 5646 5644 5642 5639 5636 5633 5631 5627 5624 5620 5616 5612 5608 5603 5599 5594 5589 5584 5579 5573 5568 5562 5556 5550 5544 5538 5532 5526 5519 5513
5640 5642 5643 5643 5644 5644 5644 5644 5644 5643 5642 5641 5640 5638 5636 5634 5632 5629 5626 5623 5620 5616 5612 5608 5604 5600 5595 5590 5585 5580 5575 5569 5563 5557 5551 5545 5538 5531 5525 5518 5511 5504 5498
5634 5635 5636 5636 5637 5637 5637 5637 5636 5636 5635 5634 5632 5631 5629 5627 5624 5621 5618 5615 5612 5608 5604 5600 5596 5591 5587 5582 5576 5571 5565 5559 5553 5546 5540 5533 5526 5519 5512 5504 5497 5490 5483
5627 5628 5629 5630 5630 5630 5630 5630 5629 5629 5628 5627 5625 5623 5621 5619 5617 5614 5611 5607 5604 5600 5596 5592 5587 5582 5578 5572 5567 5561 5555 5549 5542 5535 5528 5521 5513 5506 5499 5491 5484 5476 5468
5621 5622 5622 5623 5623 5623 5623 5623 5622 5621 5620 5619 5618 5616 5614 5611 5609 5606 5603 5599 5595 5592 5587 5583 5578 5573 5568 5563 5557 5551 5544 5538 5531 5523 5516 5509 5501 5493 5486 5478 5470 5463 5456
5614 5615 5615 5616 5616 5616 5616 5615 5615 5614 5613 5611 5610 5608 5606 5603 5600 5597 5594 5591 5587 5583 5578 5574 5569 5564 5559 5553 5547 5540 5533 5526 5519 5512 5504 5496 5489 5481 5473 5465 5458 5451 5444
5607 5608 5608 5609 5609 5609 5608 5608 5607 5606 5605 5603 5602 5600 5597 5595 5592 5589 5585 5582 5578 5574 5569 5564 5559 5554 5548 5542 5536 5529 5522 5515 5507 5500 5492 5484 5476 5468 5460 5453 5446 5439 5432
5600 5601 5601 5601 5601 5601 5601 5600 5599 5598 5597 5595 5593 5591 5589 5586 5583 5580 5576 5573 5569 5564 5560 5555 5549 5544 5538 5532 5525 5518 5511 5503 5495 5487 5479 5472 5464 5456 5448 5441 5434 5427 5421
5593 5593 5593 5593 5593 5593 5593 5592 5591 5590 5588 5587 5585 5583 5580 5577 5574 5571 5567 5563 5559 5554 5550 5545 5539 5534 5527 5521 5514 5507 5499 5491 5483 5475 5467 5459 5452 5444 5437 5430 5423 5416 5410
5585 5585 5585 5585 5585 5585 5584 5583 5582 5581 5579 5578 5576 5573 5571 5568 5565 5561 5558 5554 5549 5545 5540 5534 5529 5523 5517 5510 5503 5495 5487 5479 5471 5463 5455 5447 5440 5433 5425 5418 5412 5405 5399
5576 5577 5577 5577 5576 5576 5575 5575 5573 5572 5570 5569 5567 5564 5561 5559 5555 5552 5548 5544 5539 5534 5529 5524 5518 5512 5505 5498 5491 5483 5475 5467 5459 5451 5443 5436 5428 5421 5414 5407 5400 5394 5389
5567 5568 5568 5568 5568 5567 5566 5566 5564 5563 5561 5559 5557 5555 5552 5549 5545 5542 5538 5534 5529 5524 5519 5513 5507 5501 5494 5487 5479 5471 5463 5455 5447 5440 5432 5425 5417 5410 5404 5397 5390 5384 5379
5558 5559 5559 5559 5558 5558 5557 5556 5555 5554 5552 5550 5547 5545 5542 5539 5536 5532 5528 5523 5519 5514 5508 5502 5496 5490 5483 5476 5468 5460 5452 5444 5436 5429 5421 5414 5407 5400 5394 5387 5381 5375 5369
5549 5549 5549 5549 5548 5548 5547 5546 5545 5543 5542 5540 5537 5535 5532 5529 5525 5521 5517 5513 5508 5503 5497 5491 5485 5478 5471 5464 5456 5449 5441 5433 5425 5418 5411 5404 5397 5390 5384 5378 5371 5366 5360
5539 5539 5539 5539 5538 5538 5537 5536 5534 5533 5531 5529 5527 5524 5521 5518 5515 5511 5507 5502 5497 5492 5486 5480 5474 5467 5460 5453 5445 5437 5429 5422 5415 5408 5401 5394 5387 5380 5374 5368 5362 5357 5352
5528 5528 5528 5528 5528 5527 5526 5525 5524 5522 5520 5518 5516 5513 5510 5507 5504 5500 5496 5491 5486 5481 5475 5469 5463 5456 5449 5442 5434 5426 5419 5411 5404 5397 5390 5384 5377 5371 5364 5359 5353 5348 5343